Temp
-6 -6 -6 -5 -4 -5 -4 -5 -6 -6 -5 -6 -6 -6 -5 -5 -6 -6 -7 -6 -6 -6 -6 -6 -6 -5 -5 -5 -5 -5 -5 -5 -5 -5 -5 -5 -5 -5 -5 -5 -5 -5 -6 -6 -6 -6 -7 -7 -7
-5 -5 -5 -5 -5 -5 -4 -4 -5 -6 -5 -5 -6 -6 -5 -5 -5 -6 -6 -6 -6 -6 -6 -6 -6 -5 -5 -5 -5 -5 -5 -5 -6 -6 -6 -5 -5 -5 -5 -5 -6 -6 -6 -6 -6 -7 -7 -7 -7
-5 -5 -5 -5 -5 -5 -5 -5 -5 -5 -6 -6 -6 -6 -6 -5 -5 -5 -6 -6 -6 -6 -6 -6 -6 -5 -5 -5 -5 -5 -5 -5 -6 -6 -6 -5 -5 -5 -5 -5 -6 -6 -6 -7 -6 -7 -7 -7 -7
-6 -5 -5 -6 -5 -5 -5 -5 -5 -5 -5 -5 -5 -5 -5 -6 -6 -5 -5 -5 -6 -6 -6 -6 -6 -6 -6 -6 -5 -6 -5 -6 -6 -6 -5 -5 -5 -6 -6 -6 -6 -6 -6 -7 -7 -7 -7 -7 -7
-6 -6 -5 -6 -6 -6 -6 -6 -5 -5 -5 -5 -5 -5 -5 -6 -6 -5 -5 -5 -5 -5 -5 -5 -5 -6 -6 -6 -6 -6 -5 -5 -5 -5 -5 -5 -5 -5 -5 -6 -6 -6 -6 -6 -6 -7 -7 -7 -7
-6 -6 -6 -6 -6 -6 -6 -6 -5 -5 -5 -5 -5 -5 -5 -5 -6 -6 -5 -5 -6 -6 -5 -5 -5 -6 -6 -6 -6 -5 -5 -5 -5 -5 -5 -5 -5 -5 -5 -5 -6 -6 -6 -7 -7 -6 -7 -7 -7
-7 -6 -6 -6 -6 -6 -6 -6 -6 -6 -6 -6 -5 -5 -6 -5 -5 -6 -6 -6 -6 -6 -6 -5 -6 -6 -6 -6 -5 -5 -5 -5 -5 -5 -5 -5 -5 -5 -5 -5 -6 -6 -6 -6 -7 -6 -7 -7 -7
-6 -7 -7 -6 -6 -6 -6 -6 -6 -6 -6 -6 -6 -6 -5 -6 -5 -5 -5 -6 -6 -6 -6 -6 -5 -5 -5 -5 -5 -5 -5 -5 -5 -5 -5 -5 -5 -5 -5 -5 -5 -5 -6 -6 -6 -6 -6 -7 -7
-6 -7 -7 -7 -6 -7 -7 -6 -6 -6 -6 -6 -6 -6 -6 -6 -6 -6 -6 -5 -6 -6 -6 -6 -5 -5 -5 -5 -5 -5 -5 -5 -5 -5 -5 -5 -5 -5 -5 -5 -6 -6 -6 -6 -6 -6 -6 -6 -6
-5 -7 -7 -7 -7 -7 -7 -7 -6 -6 -6 -6 -6 -6 -6 -6 -6 -6 -6 -6 -6 -6 -6 -6 -6 -6 -6 -5 -5 -5 -5 -5 -6 -6 -6 -5 -5 -5 -6 -6 -6 -6 -6 -6 -6 -6 -6 -6 -6
-6 -6 -7 -7 -7 -7 -7 -7 -6 -6 -6 -6 -6 -6 -6 -6 -6 -6 -6 -6 -6 -6 -6 -6 -6 -6 -6 -6 -6 -6 -6 -6 -6 -6 -6 -6 -6 -6 -6 -6 -6 -6 -6 -6 -6 -6 -6 -6 -6
-6 -7 -6 -7 -7 -7 -7 -7 -7 -7 -6 -6 -6 -6 -6 -6 -6 -6 -6 -6 -6 -6 -6 -6 -6 -6 -6 -6 -6 -6 -6 -6 -6 -6 -6 -6 -6 -6 -6 -6 -6 -6 -6 -6 -6 -6 -6 -6 -6
-6 -6 -7 -6 -7 -7 -7 -7 -7 -7 -7 -7 -7 -6 -6 -6 -6 -6 -6 -6 -6 -6 -6 -6 -6 -6 -6 -6 -6 -6 -6 -6 -6 -6 -6 -6 -6 -6 -6 -6 -6 -6 -6 -6 -6 -5 -5 -5 -6
-6 -6 -6 -6 -7 -7 -7 -7 -7 -7 -7 -7 -7 -7 -7 -6 -6 -6 -6 -6 -6 -6 -7 -6 -6 -7 -6 -6 -6 -7 -6 -6 -6 -6 -6 -6 -6 -6 -6 -6 -6 -6 -6 -6 -5 -5 -5 -5 -5
-7 -6 -6 -6 -6 -6 -7 -6 -6 -7 -7 -7 -8 -7 -7 -7 -6 -6 -7 -7 -7 -7 -6 -7 -6 -6 -6 -6 -6 -6 -6 -6 -7 -6 -6 -6 -6 -6 -6 -6 -6 -6 -6 -5 -5 -5 -5 -5 -5
-7 -7 -7 -6 -6 -7 -6 -7 -6 -7 -7 -8 -8 -7 -7 -7 -6 -6 -6 -7 -7 -7 -7 -7 -7 -7 -6 -6 -6 -6 -6 -7 -7 -6 -6 -6 -6 -6 -6 -6 -6 -6 -6 -6 -5 -5 -5 -5 -5
-7 -7 -7 -7 -6 -6 -6 -7 -7 -7 -7 -8 -8 -7 -7 -7 -7 -6 -6 -6 -6 -6 -6 -7 -7 -7 -7 -6 -6 -6 -6 -6 -6 -6 -6 -7 -7 -6 -6 -6 -6 -6 -6 -6 -6 -6 -6 -5 -5
-8 -7 -7 -7 -6 -7 -6 -7 -7 -7 -7 -7 -8 -8 -7 -7 -7 -7 -6 -6 -6 -6 -6 -6 -7 -7 -7 -6 -6 -6 -7 -7 -7 -7 -7 -7 -7 -7 -7 -7 -7 -7 -7 -6 -6 -6 -6 -6 -6
-8 -8 -7 -7 -7 -7 -6 -6 -6 -7 -7 -7 -8 -8 -8 -7 -7 -7 -7 -6 -6 -6 -6 -6 -6 -6 -7 -7 -6 -7 -7 -7 -8 -8 -8 -8 -7 -7 -7 -7 -7 -7 -7 -6 -6 -6 -6 -6 -6
-8 -8 -7 -8 -7 -7 -6 -7 -6 -6 -7 -7 -7 -7 -7 -7 -7 -7 -7 -6 -6 -6 -6 -6 -6 -6 -7 -7 -7 -7 -8 -8 -8 -8 -8 -8 -7 -7 -7 -7 -7 -6 -6 -6 -6 -6 -6 -6 -6
-8 -8 -8 -7 -7 -7 -7 -7 -6 -6 -7 -7 -7 -7 -7 -7 -7 -6 -7 -7 -6 -6 -6 -6 -6 -6 -7 -7 -7 -7 -7 -8 -8 -8 -8 -8 -7 -7 -7 -7 -7 -6 -6 -6 -6 -6 -6 -6 -6
-8 -8 -8 -8 -7 -6 -7 -7 -7 -7 -7 -7 -7 -7 -7 -7 -7 -6 -6 -7 -6 -6 -6 -6 -6 -6 -6 -7 -7 -7 -8 -8 -8 -8 -7 -7 -7 -7 -7 -7 -7 -7 -6 -6 -6 -6 -6 -6 -6
-7 -8 -9 -7 -7 -7 -7 -7 -7 -7 -7 -7 -7 -7 -7 -7 -7 -6 -6 -6 -6 -6 -6 -6 -6 -7 -6 -7 -7 -7 -7 -7 -7 -7 -7 -7 -7 -7 -7 -7 -7 -6 -6 -6 -7 -7 -6 -7 -7
-6 -7 -7 -7 -7 -7 -7 -7 -7 -7 -7 -7 -7 -7 -7 -7 -7 -7 -7 -7 -7 -6 -6 -7 -7 -7 -7 -7 -7 -7 -7 -7 -7 -7 -7 -7 -6 -7 -7 -7 -7 -7 -6 -7 -7 -6 -6 -6 -7
-6 -6 -7 -8 -8 -7 -7 -7 -6 -7 -7 -7 -7 -7 -7 -7 -7 -7 -7 -7 -7 -7 -6 -6 -7 -7 -7 -8 -7 -7 -7 -7 -7 -7 -7 -7 -7 -7 -7 -7 -7 -7 -7 -7 -7 -6 -6 -6 -6
-6 -7 -8 -8 -8 -8 -8 -7 -6 -7 -7 -7 -7 -7 -7 -7 -7 -7 -7 -7 -8 -8 -7 -7 -7 -7 -7 -7 -7 -7 -7 -7 -7 -7 -7 -8 -8 -8 -8 -8 -7 -6 -6 -7 -7 -7 -6 -6 -6
-7 -8 -8 -8 -7 -7 -7 -7 -8 -7 -7 -7 -7 -7 -7 -7 -7 -7 -7 -8 -8 -8 -8 -7 -7 -8 -7 -8 -7 -7 -7 -8 -8 -8 -7 -8 -8 -8 -8 -8 -8 -7 -7 -7 -7 -7 -7 -7 -7
-8 -8 -8 -8 -7 -7 -7 -7 -8 -8 -8 -7 -7 -7 -7 -7 -7 -7 -7 -8 -8 -7 -8 -7 -8 -8 -8 -8 -7 -8 -7 -7 -8 -8 -8 -8 -7 -8 -7 -7 -7 -7 -7 -7 -7 -7 -7 -7 -7
-8 -8 -8 -8 -7 -7 -7 -8 -8 -8 -8 -8 -7 -7 -7 -7 -7 -7 -7 -8 -8 -7 -7 -7 -8 -8 -8 -8 -8 -8 -7 -7 -6 -7 -8 -8 -8 -7 -7 -7 -7 -7 -7 -7 -7 -7 -7 -7 -8
-8 -8 -8 -8 -8 -7 -7 -8 -8 -8 -8 -8 -8 -7 -7 -7 -7 -7 -7 -7 -7 -7 -7 -8 -8 -8 -8 -7 -7 -8 -8 -6 -6 -7 -7 -8 -7 -7 -7 -7 -7 -7 -7 -7 -7 -7 -8 -8 -7
Height
5903 5901 5900 5899 5900 5896 5896 5895 5894 5893 5894 5893 5893 5893 5893 5892 5892 5895 5893 5895 5896 5897 5899 5900 5900 5900 5902 5904 5905 5907 5908 5909 5912 5911 5910 5911 5912 5912 5915 5914 5915 5916 5915 5914 5913 5914 5912 5911 5910
5906 5905 5904 5901 5900 5899 5897 5896 5896 5895 5895 5896 5896 5896 5896 5896 5895 5895 5895 5897 5898 5900 5900 5901 5903 5902 5905 5905 5908 5909 5911 5912 5914 5913 5911 5913 5913 5915 5916 5916 5917 5917 5917 5916 5915 5914 5913 5912 5912
5908 5908 5907 5905 5902 5900 5898 5898 5898 5897 5897 5898 5899 5898 5898 5899 5898 5898 5898 5899 5901 5902 5904 5905 5905 5905 5907 5906 5909 5911 5913 5915 5917 5915 5914 5915 5916 5918 5917 5918 5918 5918 5917 5917 5917 5917 5916 5914 5913
5911 5912 5910 5908 5906 5904 5902 5901 5900 5899 5899 5900 5900 5901 5901 5900 5901 5901 5900 5902 5903 5904 5906 5906 5907 5908 5908 5909 5910 5914 5915 5917 5917 5916 5917 5918 5919 5921 5919 5920 5920 5919 5918 5919 5919 5919 5918 5917 5915
5915 5914 5912 5910 5909 5907 5906 5904 5903 5902 5902 5902 5902 5902 5903 5902 5904 5904 5904 5904 5905 5907 5908 5908 5910 5911 5913 5912 5913 5916 5917 5917 5918 5918 5920 5920 5921 5922 5922 5922 5921 5921 5920 5920 5920 5920 5919 5918 5916
5918 5917 5916 5913 5911 5910 5909 5907 5907 5906 5905 5904 5904 5904 5904 5904 5906 5907 5908 5907 5908 5910 5911 5911 5912 5912 5913 5915 5916 5917 5918 5918 5919 5920 5922 5922 5923 5923 5923 5922 5922 5921 5921 5921 5921 5920 5920 5919 5917
5920 5920 5918 5916 5915 5913 5912 5910 5909 5907 5906 5906 5906 5905 5906 5906 5906 5908 5909 5909 5910 5912 5914 5913 5913 5914 5915 5917 5918 5918 5920 5920 5921 5922 5924 5923 5924 5924 5924 5924 5924 5923 5922 5922 5922 5921 5921 5919 5916
5921 5923 5920 5919 5918 5917 5916 5914 5912 5910 5908 5908 5908 5907 5907 5908 5907 5908 5910 5911 5912 5914 5915 5916 5916 5916 5918 5918 5919 5921 5920 5920 5922 5922 5923 5924 5925 5925 5924 5925 5925 5925 5924 5924 5923 5922 5921 5920 5917
5925 5924 5923 5922 5921 5920 5920 5917 5915 5913 5912 5910 5909 5908 5908 5908 5909 5909 5910 5912 5913 5915 5916 5916 5917 5917 5918 5920 5921 5920 5920 5921 5922 5922 5922 5923 5924 5925 5925 5925 5925 5924 5924 5924 5923 5923 5921 5919 5917
5928 5926 5925 5924 5923 5922 5922 5920 5918 5917 5915 5913 5912 5910 5909 5909 5909 5910 5910 5912 5914 5916 5917 5916 5916 5918 5919 5919 5920 5921 5921 5922 5922 5922 5922 5923 5923 5923 5925 5925 5924 5923 5923 5923 5923 5922 5921 5919 5918
5931 5929 5928 5927 5926 5926 5925 5923 5921 5920 5919 5917 5915 5913 5912 5910 5910 5910 5911 5912 5914 5916 5917 5917 5917 5918 5920 5919 5920 5922 5922 5921 5922 5922 5923 5923 5924 5924 5924 5924 5924 5924 5923 5922 5923 5922 5921 5920 5919
5933 5933 5931 5929 5929 5929 5927 5926 5923 5922 5921 5919 5918 5916 5914 5912 5911 5911 5912 5913 5913 5915 5917 5918 5918 5919 5919 5919 5920 5921 5922 5922 5922 5923 5923 5923 5923 5923 5923 5922 5922 5922 5921 5921 5921 5921 5920 5919 5918
5934 5934 5934 5931 5931 5930 5929 5928 5926 5924 5923 5922 5920 5917 5915 5913 5912 5913 5913 5913 5913 5913 5915 5917 5919 5919 5919 5919 5919 5920 5921 5922 5922 5921 5922 5922 5922 5921 5921 5921 5921 5921 5921 5920 5920 5919 5918 5918 5917
5934 5935 5934 5934 5932 5931 5931 5930 5928 5927 5925 5923 5922 5919 5916 5914 5913 5912 5912 5913 5912 5913 5914 5916 5918 5919 5920 5919 5918 5919 5919 5920 5920 5921 5921 5921 5921 5920 5919 5919 5919 5919 5919 5918 5918 5917 5917 5916 5916
5932 5935 5935 5935 5933 5932 5931 5931 5929 5927 5926 5924 5923 5920 5918 5915 5914 5912 5911 5911 5912 5913 5915 5915 5916 5918 5919 5919 5917 5918 5919 5919 5919 5920 5920 5920 5919 5918 5918 5918 5918 5918 5917 5917 5916 5915 5915 5915 5915
5932 5933 5934 5934 5934 5932 5932 5930 5930 5929 5928 5926 5924 5922 5919 5918 5916 5915 5914 5912 5912 5913 5914 5914 5914 5916 5917 5918 5918 5918 5919 5919 5919 5920 5919 5919 5919 5918 5917 5917 5917 5917 5916 5916 5915 5914 5913 5913 5913
5929 5931 5933 5933 5932 5930 5931 5931 5932 5932 5929 5928 5926 5923 5922 5919 5917 5917 5915 5913 5913 5913 5914 5915 5915 5915 5916 5917 5918 5918 5918 5919 5919 5919 5919 5918 5918 5917 5916 5916 5916 5916 5915 5915 5914 5913 5912 5911 5911
5927 5930 5932 5931 5931 5930 5931 5931 5932 5931 5931 5930 5927 5925 5922 5921 5918 5918 5918 5916 5915 5914 5914 5914 5915 5915 5916 5917 5918 5918 5918 5918 5918 5918 5917 5917 5916 5915 5914 5914 5914 5915 5914 5914 5914 5912 5910 5910 5909
5925 5928 5930 5930 5931 5932 5932 5931 5931 5931 5930 5930 5929 5927 5924 5921 5921 5918 5918 5918 5916 5915 5914 5913 5914 5915 5915 5915 5916 5917 5917 5917 5916 5917 5917 5917 5916 5915 5915 5914 5914 5914 5913 5913 5913 5912 5910 5910 5909
5923 5926 5928 5929 5929 5931 5931 5932 5930 5930 5929 5928 5929 5928 5926 5923 5921 5920 5918 5918 5917 5916 5914 5914 5913 5913 5914 5914 5914 5915 5915 5916 5917 5917 5916 5916 5915 5915 5915 5913 5913 5913 5912 5912 5911 5911 5910 5909 5909
5921 5924 5925 5926 5927 5928 5929 5931 5931 5930 5928 5927 5927 5927 5927 5924 5921 5919 5918 5917 5916 5916 5915 5914 5914 5914 5913 5912 5913 5913 5914 5914 5916 5916 5916 5915 5915 5914 5914 5913 5912 5912 5911 5911 5910 5910 5909 5909 5909
5919 5921 5921 5923 5924 5926 5927 5929 5928 5927 5926 5925 5925 5925 5925 5923 5921 5919 5918 5916 5915 5915 5915 5914 5914 5914 5914 5913 5913 5912 5913 5913 5915 5916 5915 5914 5913 5913 5912 5912 5911 5911 5910 5909 5909 5909 5908 5907 5908
5915 5917 5918 5919 5921 5921 5922 5924 5926 5924 5924 5924 5924 5923 5923 5922 5920 5917 5916 5916 5915 5914 5913 5913 5914 5915 5914 5914 5913 5913 5913 5913 5915 5915 5915 5915 5914 5913 5911 5910 5909 5908 5907 5907 5907 5906 5906 5905 5906
5911 5913 5914 5916 5917 5919 5920 5921 5923 5922 5922 5922 5922 5921 5920 5919 5918 5916 5914 5914 5914 5914 5913 5912 5912 5913 5913 5913 5914 5914 5913 5914 5914 5914 5916 5915 5914 5913 5912 5909 5908 5906 5906 5905 5905 5905 5904 5902 5903
5909 5910 5912 5914 5915 5916 5916 5916 5920 5921 5920 5921 5921 5920 5918 5916 5915 5914 5912 5912 5912 5912 5912 5912 5911 5911 5913 5913 5913 5913 5913 5913 5913 5913 5913 5911 5911 5910 5909 5909 5907 5905 5904 5904 5904 5903 5903 5903 5902
5904 5906 5909 5910 5912 5913 5911 5911 5916 5918 5919 5919 5920 5919 5917 5913 5911 5911 5909 5908 5908 5909 5910 5910 5910 5910 5912 5913 5911 5911 5911 5911 5912 5911 5910 5908 5904 5904 5904 5905 5906 5904 5902 5902 5902 5902 5901 5901 5901
5901 5903 5907 5908 5909 5909 5909 5910 5912 5914 5916 5916 5918 5916 5914 5911 5909 5908 5906 5904 5906 5907 5909 5908 5909 5909 5911 5911 5909 5908 5909 5908 5909 5908 5905 5903 5898 5896 5895 5897 5900 5901 5900 5899 5899 5900 5900 5899 5898
5899 5904 5905 5905 5906 5906 5907 5908 5910 5911 5912 5914 5914 5912 5910 5907 5905 5903 5902 5900 5900 5904 5905 5908 5907 5907 5908 5909 5908 5909 5907 5905 5903 5903 5901 5897 5891 5885 5886 5887 5891 5895 5896 5896 5896 5895 5896 5897 5896
5899 5901 5902 5903 5903 5903 5904 5907 5908 5910 5911 5912 5910 5909 5907 5905 5903 5902 5900 5898 5899 5901 5904 5905 5905 5906 5906 5908 5910 5912 5912 5909 5904 5901 5899 5893 5889 5885 5880 5881 5885 5889 5891 5891 5891 5891 5891 5892 5893
5897 5899 5900 5900 5901 5901 5902 5905 5906 5907 5908 5908 5908 5906 5905 5902 5901 5899 5898 5897 5898 5899 5902 5902 5901 5905 5905 5907 5908 5910 5910 5910 5903 5899 5896 5893 5890 5888 5887 5881 5882 5883 5884 5886 5887 5887 5887 5888 5889
Wind_Speed
23 21 21 19 20 21 14 16 11 12 11 13 13 13 14 15 17 18 20 17 16 17 17 16 16 19 19 18 16 15 16 17 15 17 19 17 16 16 14 14 14 14 15 16 15 15 14 13 13
24 22 21 19 21 20 20 19 14 11 13 12 11 12 14 15 17 17 19 18 17 15 16 17 17 20 18 18 14 14 14 15 13 16 17 15 15 13 14 14 15 15 14 15 16 14 14 13 12
22 23 23 21 23 23 23 22 17 14 12 10 11 10 12 13 16 16 16 18 16 16 16 16 17 19 17 19 15 14 13 13 13 17 17 15 14 12 14 14 14 14 14 14 14 14 14 13 12
21 21 23 23 22 23 24 22 20 16 11 8 9 8 11 13 12 13 15 13 14 12 13 14 14 16 16 16 14 13 14 12 13 16 16 15 14 12 13 12 12 14 15 13 13 13 12 12 10
22 22 23 23 25 25 23 21 19 21 16 9 7 7 10 13 10 10 13 12 11 11 12 13 13 14 14 14 15 12 13 13 13 14 14 14 12 12 12 11 12 14 13 12 12 13 13 12 10
22 23 23 24 26 25 22 22 21 21 18 14 8 6 7 10 10 6 9 12 12 8 11 13 14 14 14 15 15 13 13 13 12 10 11 13 11 11 11 10 10 10 10 9 11 14 13 14 12
22 23 25 24 23 24 22 21 24 24 21 14 13 7 6 6 7 5 6 10 10 9 9 12 13 14 14 14 14 13 11 12 11 9 9 11 9 8 9 8 9 9 10 9 9 12 11 14 16
23 22 24 25 24 24 21 19 22 24 24 20 13 12 7 3 5 3 2 6 8 8 9 10 11 12 12 12 13 11 10 10 10 8 7 7 6 6 6 5 7 6 6 6 7 10 10 12 16
17 23 21 23 23 25 21 19 20 23 25 22 18 13 9 8 4 2 1 2 4 6 8 10 9 9 10 9 8 7 7 6 6 7 6 5 5 3 4 3 4 5 4 4 6 8 10 11 13
14 20 20 17 19 21 20 19 17 20 22 23 18 14 11 7 6 3 3 3 3 6 8 8 8 7 6 6 5 3 3 5 6 8 7 6 7 5 3 1 1 3 2 2 4 7 7 8 11
9 14 19 18 16 17 18 19 17 16 20 24 24 19 12 9 5 4 4 3 4 5 7 9 9 8 5 4 3 2 2 4 5 6 7 6 7 7 6 5 4 4 1 3 4 3 3 6 9
12 13 15 17 17 15 17 18 19 17 20 21 22 23 22 13 6 3 2 3 3 3 5 7 8 8 7 4 4 3 4 4 4 3 4 4 5 5 4 3 2 1 2 0 5 2 3 5 7
6 9 6 14 13 14 14 17 20 21 21 23 21 21 21 21 13 8 4 1 2 2 1 3 5 6 6 5 5 4 6 6 5 4 3 4 4 3 3 3 3 3 4 3 4 4 5 4 6
5 5 5 6 9 9 10 12 13 16 17 19 19 22 20 19 19 14 11 5 2 1 2 2 3 5 5 7 7 6 5 6 4 5 6 6 6 3 3 5 4 4 5 5 6 4 5 5 2
4 1 3 2 2 5 6 8 10 12 12 12 15 18 18 18 17 18 15 10 4 1 4 4 4 5 6 9 9 7 6 4 5 5 6 6 7 4 2 1 4 5 6 6 5 4 5 6 2
4 7 12 6 2 2 1 3 6 9 10 9 11 16 13 15 15 15 17 14 7 4 4 6 5 6 7 10 9 8 6 5 6 6 6 5 6 5 4 5 5 6 7 6 6 6 5 5 3
8 8 9 3 3 7 2 2 3 6 6 8 8 13 16 9 11 13 14 16 12 6 5 4 5 5 8 7 7 7 7 7 5 5 5 5 7 7 5 8 9 9 8 7 6 5 4 4 5
17 9 9 4 6 8 4 4 5 11 9 9 12 14 14 15 5 9 11 11 13 10 6 5 7 6 6 6 5 4 5 4 2 4 3 2 4 5 3 3 4 5 8 7 6 4 4 4 5
17 14 9 6 2 2 2 10 9 6 6 5 7 11 14 13 4 6 8 9 7 8 9 6 7 8 8 7 6 6 5 4 5 4 5 3 1 2 0 2 3 5 7 8 6 4 4 4 5
21 20 15 9 6 5 7 10 8 4 4 1 6 7 10 11 3 4 6 6 5 3 6 4 5 8 8 7 7 7 6 6 5 7 7 7 6 4 3 3 4 5 6 7 7 6 5 4 4
22 22 20 13 12 10 8 10 9 8 6 6 3 9 9 9 6 3 3 4 4 2 0 1 1 4 7 7 5 6 6 6 8 11 12 11 9 7 6 6 6 6 7 8 8 8 7 7 6
23 23 22 16 14 13 13 14 15 17 14 10 5 7 7 12 8 2 1 3 4 2 2 2 3 3 3 6 7 8 7 8 11 14 15 13 12 9 8 7 6 7 7 8 9 9 9 10 9
22 23 26 17 15 16 15 13 10 16 13 10 9 8 3 8 7 5 3 1 2 2 2 2 1 6 8 8 9 9 10 11 12 15 15 14 13 11 11 10 8 9 9 9 10 11 13 12 11
18 20 23 18 18 19 17 14 3 9 7 3 3 4 7 7 10 5 3 3 4 7 4 1 2 7 10 12 13 13 13 13 14 15 15 14 16 15 16 16 14 11 8 10 10 10 14 12 10
15 14 21 21 23 20 17 20 7 10 6 4 5 5 8 10 12 13 10 7 6 9 9 7 3 4 9 10 11 15 14 13 14 12 13 13 17 19 21 21 17 14 11 10 9 8 11 11 7
15 14 16 20 21 20 22 22 8 12 8 3 7 9 12 17 17 19 18 17 13 13 13 9 8 6 7 8 10 8 7 5 9 9 10 16 20 22 22 23 21 16 13 12 12 10 9 8 6
12 11 12 18 17 17 17 16 7 7 12 13 11 14 18 21 21 16 9 19 18 17 16 12 10 9 7 6 7 6 3 4 5 5 10 16 17 17 25 23 25 21 18 16 14 14 13 11 11
14 11 16 13 13 13 14 9 7 6 10 9 7 11 14 17 18 9 11 11 15 18 18 14 14 13 10 10 7 1 2 2 3 6 9 21 24 15 20 23 25 24 20 18 17 14 14 13 13
13 16 14 13 11 10 9 10 11 8 8 7 10 14 17 19 13 5 8 7 8 14 15 16 18 15 15 12 12 9 8 9 8 12 6 17 21 26 8 15 20 24 23 20 19 20 18 16 13
15 14 11 8 8 11 11 10 13 11 9 5 12 16 11 15 13 9 9 5 7 11 16 19 20 19 18 16 15 14 14 12 6 11 15 15 17 21 22 23 14 14 24 27 20 18 19 19 18
Wind_Direction
66 64 48 47 47 56 82 90 90 78 78 74 76 79 84 88 95 106 107 109 115 120 122 119 110 109 111 111 114 112 103 96 98 92 83 81 79 75 73 68 67 67 69 66 64 63 63 64 61
70 65 58 52 50 50 66 78 88 93 103 85 82 84 85 94 102 106 108 109 114 119 119 116 115 112 116 113 111 104 102 104 103 97 89 87 81 81 81 74 72 72 72 73 71 67 64 59 61
70 66 62 56 51 46 52 60 69 95 101 93 84 86 91 92 98 109 111 111 110 115 119 120 119 117 120 116 112 103 103 104 112 102 100 96 92 88 84 79 74 72 69 66 63 66 65 62 58
75 69 65 60 58 52 47 49 58 82 100 112 106 95 96 90 87 103 110 117 119 123 122 120 122 121 119 119 119 116 112 115 107 103 103 101 98 96 87 80 76 75 70 67 67 64 62 58 57
78 73 69 67 60 56 52 47 47 57 66 95 126 110 95 83 85 98 108 112 112 124 128 127 127 127 128 117 118 115 119 115 108 104 109 106 104 101 92 85 75 71 65 60 62 64 57 51 36
75 75 70 66 57 52 49 44 46 53 55 56 81 111 105 98 86 97 111 113 111 119 129 126 126 122 117 117 114 116 115 111 109 111 115 116 111 105 100 92 76 72 77 61 55 51 52 43 20
81 76 69 66 60 54 49 47 40 41 50 53 57 75 105 120 112 101 120 114 115 120 129 127 128 126 121 120 119 114 117 114 116 120 123 110 117 111 99 84 76 72 74 73 72 52 50 21 17
93 84 72 70 65 61 54 52 47 42 43 47 56 62 74 99 117 118 126 130 129 138 141 137 134 129 124 119 117 125 114 114 116 117 109 114 121 115 93 72 69 66 65 55 45 43 32 23 22
100 89 82 72 68 66 59 57 51 50 49 47 49 58 66 69 74 116 142 171 164 167 161 152 145 134 126 122 126 130 117 105 96 109 121 128 120 103 76 52 59 75 49 38 32 26 20 20 22
100 95 86 79 71 75 65 59 56 56 58 53 52 59 56 69 75 88 153 170 225 203 189 175 164 162 151 148 160 148 116 111 104 108 116 104 101 115 116 86 61 54 10 356 16 6 20 17 20
92 102 99 86 76 72 69 65 62 60 58 61 54 54 56 64 89 97 95 111 195 225 211 202 189 181 188 192 179 140 119 131 131 122 107 107 116 116 124 94 94 68 20 293 335 337 20 10 6
104 87 102 94 83 70 71 70 69 59 50 54 55 50 45 42 57 75 99 120 123 179 217 230 213 202 197 195 166 172 185 198 188 162 138 140 132 142 135 133 141 137 57 7 6 350 334 331 347
80 104 83 108 94 84 78 80 74 65 52 50 51 56 51 49 51 54 58 96 132 116 161 232 240 209 190 186 161 185 187 201 210 192 193 187 173 189 220 246 256 268 288 280 313 318 351 16 19
56 107 101 115 107 97 96 96 84 69 56 47 48 47 54 53 51 50 38 31 24 194 190 169 223 222 210 199 193 183 173 172 171 192 195 198 189 165 223 250 263 283 298 304 328 325 310 330 1
319 173 339 145 77 99 79 97 92 87 71 46 22 25 42 50 52 46 44 40 40 97 191 171 187 207 220 209 201 195 188 155 168 195 203 198 201 214 258 211 294 288 297 311 316 303 307 313 304
225 300 356 300 310 136 21 85 98 77 67 43 22 6 31 45 49 50 49 53 73 86 182 181 186 194 193 202 203 195 185 186 206 215 211 220 234 236 247 262 294 293 297 300 302 309 298 282 255
275 282 352 302 317 314 199 114 84 49 55 70 33 9 13 33 43 47 52 56 65 93 134 150 153 153 183 186 203 201 191 204 222 250 252 253 257 269 284 271 279 285 281 279 290 295 305 282 245
264 269 317 40 49 55 106 187 172 105 88 37 17 10 10 13 60 46 43 61 68 80 106 155 188 170 178 189 204 198 189 201 222 243 228 294 263 250 243 265 279 279 279 287 291 305 325 296 251
262 271 298 256 129 87 178 172 180 131 115 66 15 352 352 6 31 51 27 36 57 75 80 125 154 170 170 179 174 171 186 194 197 214 182 196 312 35 140 319 317 300 294 284 291 315 308 301 256
247 253 279 253 223 288 261 197 178 209 203 84 11 354 333 348 347 38 29 356 17 64 83 89 132 172 180 184 183 179 181 191 200 194 218 244 283 286 252 284 291 283 277 278 276 279 294 290 269
244 252 264 246 227 234 272 260 248 241 237 208 317 325 336 327 309 291 357 329 330 292 228 71 94 142 173 193 205 178 174 200 215 227 244 270 277 285 278 282 289 275 268 272 281 293 292 284 275
235 246 256 249 267 253 251 256 275 270 244 218 256 303 316 308 300 204 246 350 330 297 209 252 275 264 206 203 202 202 209 220 236 249 259 267 272 273 277 281 288 285 280 301 314 303 287 272 261
227 233 245 252 262 280 290 275 241 261 247 256 274 286 295 288 306 252 212 319 314 272 194 178 314 279 261 244 237 236 239 245 254 264 275 284 287 286 279 273 275 285 302 310 295 306 315 287 257
231 236 246 252 259 270 285 274 206 241 214 144 118 205 226 257 285 283 201 188 300 292 263 314 7 340 301 270 253 250 250 254 263 277 288 294 298 286 284 284 280 280 294 300 293 302 321 319 256
240 236 239 247 258 271 279 270 248 225 208 194 216 267 257 250 254 257 248 191 230 263 265 269 285 336 329 312 288 261 261 268 273 287 296 302 304 291 289 285 282 277 282 279 282 305 322 335 277
217 220 237 249 263 271 275 272 289 219 213 282 252 282 291 295 266 257 253 246 209 233 252 264 279 296 330 359 333 315 300 315 317 312 327 324 329 276 274 277 280 268 270 272 275 278 293 307 306
211 219 235 246 260 262 264 279 302 211 235 268 278 285 295 294 286 296 286 270 244 215 238 245 279 288 302 311 318 312 354 43 17 352 336 336 323 285 260 261 266 264 263 267 259 266 279 291 292
198 214 235 252 259 252 256 248 172 196 225 245 257 278 290 297 288 306 296 271 221 220 222 241 267 281 283 293 310 115 184 2 354 348 5 342 357 296 257 251 261 266 261 259 266 266 273 276 285
222 235 245 250 249 244 246 208 199 221 243 240 261 281 287 310 288 315 344 301 235 211 225 246 254 273 286 294 306 315 357 346 17 46 34 40 26 32 346 243 258 257 254 262 266 267 268 271 275
216 216 231 246 255 239 240 205 210 234 272 282 285 302 316 318 292 304 334 336 244 258 234 244 256 267 279 291 308 327 329 311 335 41 51 35 25 24 32 41 19 279 261 257 262 273 270 264 268